Location: Chicoutimi
(48.4330°N, 71.0670°W)
Time: 23:39:07
(UTC-04:00)

ISS - Visible Passes

Search period start: 25 September 2016 00:00
Search period end: 05 October 2016 00:00
Orbit: 401 x 409 km, 51.6° (Epoch: 26 September)

Date Brightness Start Highest point End Pass type
(mag) Time Alt. Az. Time Alt. Az. Time Alt. Az.
28 Sep -0.5 20:43:55 10° SW 20:44:04 11° SW 20:44:04 11° SW visible
29 Sep -2.0 19:52:19 10° SSW 19:54:40 24° SSE 19:54:40 24° SSE visible
30 Sep -1.4 19:01:09 10° S 19:03:07 15° SE 19:05:04 10° E visible
30 Sep -1.8 20:35:54 10° WSW 20:37:45 31° SW 20:37:45 31° SW visible
01 Oct -3.0 19:43:56 10° SW 19:47:04 47° SSE 19:48:00 35° ESE visible
01 Oct -0.1 21:20:21 10° W 21:20:40 12° W 21:20:40 12° W visible
02 Oct -2.2 18:52:10 10° SSW 18:55:03 29° SE 18:57:56 10° E visible
02 Oct -2.6 20:28:06 10° WSW 20:30:46 53° WNW 20:30:46 53° WNW visible
03 Oct -3.4 19:35:55 10° WSW 19:39:11 86° SSE 19:40:46 28° ENE visible
03 Oct -0.2 21:12:42 10° WNW 21:13:26 15° WNW 21:13:26 15° WNW visible
04 Oct -3.1 18:43:51 10° SW 18:47:02 56° SSE 18:50:16 10° ENE visible
04 Oct -2.6 20:20:24 10° W 20:23:21 49° NNW 20:23:21 49° NNW visible
